Location: Burla
(50.9568°N, 10.4983°E)
Time: 14:20:31
(UTC+00:00)

Cosmos 2366 rocket - Visible Passes

Search period start: 19 April 2026 00:00
Search period end: 29 April 2026 00:00
Orbit: 953 x 997 km, 82.9° (Epoch: 19 April)

Date Brightness Start Highest point End Pass type
(mag) Time Alt. Az. Time Alt. Az. Time Alt. Az.
19 Apr 4.2 19:31:49 10° SSW 19:37:57 75° WNW 19:44:07 10° N visible
19 Apr 6.6 21:20:49 10° W 21:24:30 16° NW 21:28:11 10° NNW visible
20 Apr 5.1 19:57:30 10° SW 20:03:22 46° WNW 20:09:16 10° N visible
21 Apr 6.0 20:23:44 10° SW 20:28:58 29° WNW 20:34:14 10° N visible
22 Apr 4.1 19:02:13 10° S 19:08:22 85° W 19:14:33 10° N visible
22 Apr 6.6 20:50:39 10° W 20:54:46 18° WNW 20:58:54 10° NNW visible
23 Apr 4.9 19:27:46 10° SSW 19:33:45 52° WNW 19:39:45 10° N visible
23 Apr 7.0 21:18:52 10° WNW 21:20:45 11° NW 21:22:39 10° NNW visible
24 Apr 5.8 19:53:51 10° SW 19:59:18 32° WNW 20:04:47 10° N visible
25 Apr 7.4 03:14:23 10° NNE 03:16:46 12° NE 03:19:09 10° ENE visible
25 Apr 6.6 20:20:33 10° WSW 20:25:02 21° WNW 20:29:34 10° NNW visible
26 Apr 4.7 18:58:05 10° SSW 19:04:08 60° WNW 19:10:14 10° N visible
26 Apr 7.0 20:48:14 10° W 20:50:58 13° NW 20:53:44 10° NNW visible
27 Apr 5.7 19:24:00 10° SW 19:29:38 37° WNW 19:35:19 10° N visible
28 Apr 7.6 02:45:39 10° NE 02:46:59 11° NE 02:48:18 10° ENE visible
28 Apr 6.5 19:50:31 10° WSW 19:55:20 23° WNW 20:00:10 10° N visible
